When you browse on this site, cookies collect data to enhance your experience and personalize the content and advertising you see.
Visit our Privacy Policy to learn more. By continuing to use the site, you agree to this use of cookies and data.
  • en France
  • Liste des pays
  • À 7 jours
  • Température de l'eau
  • Carte météo
  • Widgets météo
  • user-avatar
    Se connecter

    Météo par heure à Hafun

    Ce jour, 19 Août, Lundi

    Heure Température Précipitation Vent Pression Humidité
    00:00 +29°C° 0 mm 14 m/s 753 mmHg 65%
    01:00 +29°C° 0 mm 14 m/s 753 mmHg 64%
    02:00 +29°C° 0 mm 13 m/s 753 mmHg 63%
    03:00 +29°C° 0 mm 13 m/s 752 mmHg 63%
    04:00 +29°C° 0 mm 13 m/s 753 mmHg 61%
    05:00 +29°C° 0 mm 12 m/s 754 mmHg 60%
    06:00 +29°C° 0 mm 11 m/s 754 mmHg 58%
    07:00 +33°C° 0 mm 11 m/s 754 mmHg 50%
    08:00 +36°C° 0 mm 11 m/s 755 mmHg 43%
    09:00 +38°C° 0 mm 11 m/s 755 mmHg 35%
    10:00 +39°C° 0 mm 11 m/s 754 mmHg 32%
    11:00 +42°C° 0 mm 11 m/s 754 mmHg 29%
    12:00 +44°C° 0 mm 12 m/s 753 mmHg 26%
    13:00 +42°C° 0 mm 12 m/s 753 mmHg 29%
    14:00 +41°C° 0 mm 13 m/s 752 mmHg 31%
    15:00 +39°C° 0 mm 13 m/s 751 mmHg 34%
    16:00 +37°C° 0 mm 14 m/s 751 mmHg 43%
    17:00 +33°C° 0 mm 14 m/s 752 mmHg 52%
    18:00 +31°C° 0 mm 14 m/s 752 mmHg 61%
    19:00 +31°C° 0 mm 14 m/s 752 mmHg 61%
    20:00 +29°C° 0 mm 14 m/s 753 mmHg 60%
    21:00 +29°C° 0 mm 14 m/s 753 mmHg 59%
    22:00 +29°C° 0 mm 13 m/s 753 mmHg 60%
    23:00 +29°C° 0 mm 13 m/s 753 mmHg 60%

    Demain, 20 Août, Mardi

    Heure Température Précipitation Vent Pression Humidité
    00:00 +29°C° 0 mm 13 m/s 753 mmHg 60%
    01:00 +29°C° 0 mm 12 m/s 753 mmHg 59%
    02:00 +28°C° 0 mm 12 m/s 753 mmHg 58%
    03:00 +28°C° 0 mm 11 m/s 753 mmHg 57%
    04:00 +29°C° 0 mm 11 m/s 753 mmHg 55%
    05:00 +29°C° 0 mm 11 m/s 753 mmHg 52%
    06:00 +29°C° 0 mm 11 m/s 754 mmHg 50%
    07:00 +33°C° 0 mm 11 m/s 754 mmHg 43%
    08:00 +36°C° 0 mm 11 m/s 754 mmHg 36%
    09:00 +38°C° 0 mm 11 m/s 755 mmHg 29%
    10:00 +41°C° 0 mm 12 m/s 754 mmHg 28%
    11:00 +42°C° 0 mm 12 m/s 753 mmHg 27%
    12:00 +43°C° 0 mm 13 m/s 753 mmHg 25%
    13:00 +41°C° 0 mm 13 m/s 752 mmHg 31%
    14:00 +38°C° 0 mm 14 m/s 752 mmHg 37%
    15:00 +36°C° 0 mm 14 m/s 751 mmHg 42%
    16:00 +34°C° 0 mm 15 m/s 751 mmHg 48%
    17:00 +32°C° 0 mm 15 m/s 752 mmHg 54%
    18:00 +31°C° 0 mm 15 m/s 752 mmHg 60%
    19:00 +31°C° 0 mm 14 m/s 752 mmHg 62%
    20:00 +29°C° 0 mm 14 m/s 753 mmHg 63%
    21:00 +29°C° 0 mm 13 m/s 754 mmHg 64%
    22:00 +29°C° 0 mm 12 m/s 753 mmHg 65%
    23:00 +29°C° 0 mm 12 m/s 753 mmHg 65%

    Après-demain, 21 Août, Mercredi

    Heure Température Précipitation Vent Pression Humidité
    00:00 +28°C° 0 mm 11 m/s 753 mmHg 66%
    01:00 +29°C° 0 mm 11 m/s 753 mmHg 64%
    02:00 +29°C° 0 mm 11 m/s 752 mmHg 63%
    03:00 +29°C° 0 mm 11 m/s 752 mmHg 61%
    04:00 +29°C° 0 mm 11 m/s 753 mmHg 57%
    05:00 +31°C° 0 mm 11 m/s 753 mmHg 54%
    06:00 +31°C° 0 mm 11 m/s 753 mmHg 50%
    07:00 +34°C° 0 mm 11 m/s 754 mmHg 44%
    08:00 +37°C° 0 mm 10 m/s 754 mmHg 38%
    09:00 +39°C° 0 mm 10 m/s 754 mmHg 32%
    10:00 +40°C° 0 mm 10 m/s 754 mmHg 31%
    11:00 +42°C° 0 mm 11 m/s 753 mmHg 29%
    12:00 +43°C° 0 mm 12 m/s 753 mmHg 28%
    13:00 +41°C° 0 mm 12 m/s 752 mmHg 34%
    14:00 +38°C° 0 mm 13 m/s 752 mmHg 41%
    15:00 +36°C° 0 mm 13 m/s 751 mmHg 47%
    16:00 +33°C° 0 mm 14 m/s 751 mmHg 55%
    17:00 +31°C° 0 mm 14 m/s 751 mmHg 63%
    18:00 +29°C° 0 mm 15 m/s 751 mmHg 71%
    19:00 +29°C° 0 mm 15 m/s 752 mmHg 69%
    20:00 +29°C° 0 mm 14 m/s 753 mmHg 67%
    21:00 +29°C° 0 mm 14 m/s 753 mmHg 65%
    22:00 +31°C° 0 mm 14 m/s 753 mmHg 64%
    23:00 +31°C° 0 mm 13 m/s 753 mmHg 63%

    22 Août, Jeudi

    Heure Température Précipitation Vent Pression Humidité
    00:00 +31°C° 0 mm 13 m/s 753 mmHg 62%
    01:00 +31°C° 0 mm 12 m/s 753 mmHg 63%
    02:00 +29°C° 0 mm 12 m/s 752 mmHg 64%
    03:00 +29°C° 0 mm 12 m/s 752 mmHg 65%
    04:00 +29°C° 0 mm 12 m/s 753 mmHg 62%
    05:00 +31°C° 0 mm 12 m/s 753 mmHg 59%
    06:00 +31°C° 0 mm 12 m/s 753 mmHg 56%
    07:00 +34°C° 0 mm 11 m/s 754 mmHg 47%
    08:00 +37°C° 0 mm 11 m/s 754 mmHg 39%
    09:00 +41°C° 0 mm 11 m/s 754 mmHg 30%
    10:00 +42°C° 0 mm 12 m/s 754 mmHg 29%
    11:00 +43°C° 0 mm 12 m/s 753 mmHg 29%
    12:00 +43°C° 0 mm 13 m/s 752 mmHg 28%
    13:00 +42°C° 0 mm 14 m/s 752 mmHg 33%
    14:00 +40°C° 0 mm 14 m/s 751 mmHg 37%
    15:00 +38°C° 0 mm 14 m/s 750 mmHg 41%
    16:00 +36°C° 0 mm 15 m/s 751 mmHg 47%
    17:00 +34°C° 0 mm 15 m/s 751 mmHg 53%
    18:00 +32°C° 0 mm 16 m/s 751 mmHg 59%
    19:00 +32°C° 0.2 mm 14 m/s 752 mmHg 61%
    20:00 +31°C° 0.2 mm 12 m/s 752 mmHg 62%
    21:00 +31°C° 0.2 mm 11 m/s 753 mmHg 64%
    22:00 +31°C° 0 mm 11 m/s 753 mmHg 63%
    23:00 +31°C° 0 mm 12 m/s 752 mmHg 63%

    23 Août, Vendredi

    Heure Température Précipitation Vent Pression Humidité
    00:00 +31°C° 0 mm 12 m/s 752 mmHg 62%
    01:00 +29°C° 0 mm 12 m/s 752 mmHg 62%
    02:00 +29°C° 0 mm 12 m/s 752 mmHg 62%
    03:00 +29°C° 0 mm 12 m/s 752 mmHg 62%
    04:00 +29°C° 0 mm 12 m/s 752 mmHg 60%
    05:00 +31°C° 0 mm 13 m/s 753 mmHg 59%
    06:00 +31°C° 0 mm 13 m/s 753 mmHg 57%
    07:00 +33°C° 0 mm 13 m/s 753 mmHg 49%
    08:00 +36°C° 0 mm 13 m/s 754 mmHg 42%
    09:00 +39°C° 0 mm 13 m/s 754 mmHg 34%
    10:00 +41°C° 0 mm 13 m/s 753 mmHg 32%
    11:00 +42°C° 0 mm 13 m/s 753 mmHg 30%
    12:00 +43°C° 0 mm 14 m/s 752 mmHg 29%
    13:00 +42°C° 0 mm 14 m/s 752 mmHg 33%
    14:00 +40°C° 0 mm 15 m/s 751 mmHg 37%
    15:00 +38°C° 0 mm 15 m/s 751 mmHg 41%
    16:00 +36°C° 0 mm 16 m/s 751 mmHg 49%
    17:00 +33°C° 0 mm 16 m/s 751 mmHg 58%
    18:00 +31°C° 0 mm 17 m/s 751 mmHg 66%
    19:00 +31°C° 0 mm 16 m/s 752 mmHg 65%
    20:00 +31°C° 0 mm 15 m/s 753 mmHg 64%
    21:00 +31°C° 0 mm 14 m/s 753 mmHg 63%
    22:00 +32°C° 0 mm 13 m/s 753 mmHg 59%
    23:00 +32°C° 0 mm 13 m/s 753 mmHg 55%

    24 Août, Samedi

    Heure Température Précipitation Vent Pression Humidité
    00:00 +33°C° 0 mm 13 m/s 753 mmHg 51%
    01:00 +32°C° 0 mm 13 m/s 753 mmHg 53%
    02:00 +32°C° 0 mm 14 m/s 753 mmHg 54%
    03:00 +31°C° 0 mm 14 m/s 753 mmHg 56%
    04:00 +31°C° 0 mm 13 m/s 753 mmHg 55%
    05:00 +31°C° 0 mm 13 m/s 754 mmHg 55%
    06:00 +31°C° 0 mm 12 m/s 754 mmHg 54%
    07:00 +33°C° 0 mm 12 m/s 754 mmHg 49%
    08:00 +36°C° 0 mm 12 m/s 755 mmHg 44%
    09:00 +38°C° 0 mm 12 m/s 755 mmHg 38%
    10:00 +39°C° 0 mm 13 m/s 754 mmHg 35%
    11:00 +41°C° 0 mm 13 m/s 754 mmHg 32%
    12:00 +43°C° 0 mm 13 m/s 753 mmHg 30%
    13:00 +42°C° 0 mm 13 m/s 752 mmHg 31%
    14:00 +42°C° 0 mm 14 m/s 752 mmHg 33%
    15:00 +41°C° 0 mm 14 m/s 751 mmHg 35%
    16:00 +40°C° 0 mm 14 m/s 752 mmHg 38%
    17:00 +38°C° 0 mm 14 m/s 752 mmHg 41%
    18:00 +37°C° 0 mm 15 m/s 752 mmHg 43%
    19:00 +36°C° 0 mm 15 m/s 753 mmHg 47%
    20:00 +34°C° 0 mm 14 m/s 753 mmHg 50%
    21:00 +33°C° 0 mm 14 m/s 754 mmHg 53%
    22:00 +32°C° 0 mm 14 m/s 754 mmHg 56%
    23:00 +31°C° 0 mm 13 m/s 753 mmHg 59%
    Voir plus